This is the latest recevied weather packets stored in our database for station/object VU3IZK-13. If no packets are shown the sender has not sent any weather packets the latest 1 day(s).
| Time | Temp. | Humidity | Pressure | Rain* | Wind** | Luminosity | Snow |
|---|---|---|---|---|---|---|---|
| 1836274695 | 25.56° C | 91% | 936 hPa | 0 mm | 1.79 m/s, 186° | - | - |
| 1778034605 | 23.89° C | 84% | 0 hPa | 169.42 mm | 2.68 m/s, 227° | - | - |
| 1778033727 | 23.33° C | 84% | 0 hPa | 126.49 mm | 1.34 m/s, 242° | - | - |
| 1778032808 | 23.33° C | 85% | 0 hPa | 53.34 mm | 3.58 m/s, 189° | - | - |
| 1778031907 | 22.78° C | 86% | 0 hPa | 6.35 mm | 4.02 m/s, 181° | - | - |
| 1778031026 | 22.78° C | 90% | 0 hPa | 1.27 mm | 1.79 m/s, 246° | - | - |
| 1778030128 | 22.22° C | 89% | 0 hPa | 0.25 mm | 2.24 m/s, 138° | - | - |
| 1778029206 | 22.22° C | 90% | 0 hPa | 0 mm | 0.89 m/s, 232° | - | - |
| 1778028304 | 22.22° C | 89% | 0 hPa | 0 mm | 1.34 m/s, 157° | - | - |
| 1778027428 | 22.22° C | 89% | 0 hPa | 0.51 mm | 0.45 m/s, 149° | - | - |
| 1778026528 | 22.22° C | 90% | 0 hPa | 0 mm | 0.45 m/s, 227° | - | - |
| 1778025605 | 22.22° C | 89% | 0 hPa | 0 mm | 0.45 m/s, 174° | - | - |
| 1778024704 | 22.22° C | 89% | 0 hPa | 0 mm | 1.34 m/s, 177° | - | - |
| 1778023825 | 22.22° C | 89% | 0 hPa | 0 mm | 1.79 m/s, 196° | - | - |
| 1778022907 | 22.22° C | 88% | 0 hPa | 0 mm | 0.45 m/s, 191° | - | - |
| 1778022006 | 22.22° C | 88% | 0 hPa | 0 mm | 0 m/s | - | - |
| 1778021106 | 22.22° C | 90% | 0 hPa | 0 mm | 0.89 m/s, 203° | - | - |
| 1778020225 | 22.22° C | 90% | 0 hPa | 0 mm | 0 m/s | - | - |
| 1778019304 | 22.78° C | 90% | 0 hPa | 0 mm | 0.45 m/s, 160° | - | - |
| 1778018404 | 22.78° C | 88% | 0 hPa | 0 mm | 0.45 m/s, 236° | - | - |
| 1778017529 | 22.22° C | 87% | 0 hPa | 0 mm | 1.34 m/s, 218° | - | - |
| 1778016620 | 22.22° C | 86% | 0 hPa | 0 mm | 1.79 m/s, 264° | - | - |
| 1778015741 | 22.78° C | 86% | 0 hPa | 0 mm | 0.89 m/s, 190° | - | - |
| 1778014816 | 22.78° C | 88% | 0 hPa | 0 mm | 0.89 m/s, 239° | - | - |
| 1778013916 | 22.78° C | 87% | 0 hPa | 0 mm | 1.34 m/s, 194° | - | - |
* Rain latest hour (hover to see other rain measurements)
** Current wind speed in m/s (hover to see current wind gust speed)